When you browse on this site, cookies collect data to enhance your experience and personalize the content and advertising you see.
Visit our Privacy Policy to learn more. By continuing to use the site, you agree to this use of cookies and data.
  • In Österreich
  • Länderverzeichnis
  • Für 7 Tage
  • Wassertemperatur
  • Satellitenkarten
  • Wetterkarte
  • News
  • Widgets
  • user-avatar
    Anmelden

    Stündliche Wetter Cairns

    Heute, 21 Mai, Dienstag

    Zeit Temperatur Niederschläge Wind Luftdruck Luftfeuchtigkeit
    00:00 +22°C° 0.1 mm 5 m/S 762 mmHg 92%
    01:00 +22°C° 0.1 mm 5 m/S 762 mmHg 92%
    02:00 +22°C° 0.2 mm 5 m/S 762 mmHg 93%
    03:00 +22°C° 0.2 mm 5 m/S 762 mmHg 93%
    04:00 +23°C° 0 mm 4 m/S 762 mmHg 94%
    05:00 +23°C° 0.2 mm 4 m/S 762 mmHg 94%
    06:00 +23°C° 0.2 mm 4 m/S 762 mmHg 95%
    07:00 +23°C° 0.2 mm 4 m/S 762 mmHg 96%
    08:00 +25°C° 0.1 mm 5 m/S 762 mmHg 91%
    09:00 +26°C° 0.1 mm 5 m/S 762 mmHg 87%
    10:00 +27°C° 0 mm 6 m/S 763 mmHg 82%
    11:00 +27°C° 0.1 mm 6 m/S 762 mmHg 78%
    12:00 +28°C° 0.1 mm 6 m/S 762 mmHg 74%
    13:00 +28°C° 0.1 mm 6 m/S 762 mmHg 71%
    14:00 +28°C° 0.1 mm 6 m/S 762 mmHg 73%
    15:00 +27°C° 0.1 mm 6 m/S 762 mmHg 76%
    16:00 +27°C° 0 mm 5 m/S 761 mmHg 78%
    17:00 +26°C° 0 mm 4 m/S 762 mmHg 83%
    18:00 +25°C° 0 mm 4 m/S 762 mmHg 88%
    19:00 +23°C° 0 mm 4 m/S 762 mmHg 93%
    20:00 +23°C° 0.1 mm 5 m/S 762 mmHg 93%
    21:00 +23°C° 0.1 mm 5 m/S 762 mmHg 93%
    22:00 +23°C° 0.1 mm 5 m/S 763 mmHg 94%
    23:00 +23°C° 0.2 mm 5 m/S 763 mmHg 94%

    Morgen, 22 Mai, Mittwoch

    Zeit Temperatur Niederschläge Wind Luftdruck Luftfeuchtigkeit
    00:00 +23°C° 0.2 mm 5 m/S 763 mmHg 95%
    01:00 +23°C° 0.2 mm 5 m/S 762 mmHg 95%
    02:00 +23°C° 0.3 mm 5 m/S 762 mmHg 96%
    03:00 +23°C° 0.3 mm 5 m/S 762 mmHg 96%
    04:00 +23°C° 0.3 mm 5 m/S 762 mmHg 96%
    05:00 +23°C° 0.2 mm 5 m/S 762 mmHg 96%
    06:00 +23°C° 0.2 mm 5 m/S 763 mmHg 96%
    07:00 +23°C° 0.2 mm 5 m/S 763 mmHg 96%
    08:00 +24°C° 0.1 mm 6 m/S 763 mmHg 91%
    09:00 +24°C° 0.1 mm 6 m/S 763 mmHg 87%
    10:00 +26°C° 0.1 mm 6 m/S 763 mmHg 83%
    11:00 +27°C° 0.2 mm 6 m/S 763 mmHg 81%
    12:00 +27°C° 0.2 mm 6 m/S 763 mmHg 79%
    13:00 +27°C° 0.2 mm 6 m/S 762 mmHg 77%
    14:00 +27°C° 0.2 mm 6 m/S 762 mmHg 79%
    15:00 +26°C° 0.2 mm 6 m/S 762 mmHg 80%
    16:00 +26°C° 0.2 mm 6 m/S 762 mmHg 81%
    17:00 +25°C° 0.1 mm 5 m/S 762 mmHg 85%
    18:00 +23°C° 0.1 mm 5 m/S 762 mmHg 89%
    19:00 +23°C° 0.1 mm 5 m/S 762 mmHg 93%
    20:00 +23°C° 0.1 mm 5 m/S 763 mmHg 93%
    21:00 +23°C° 0.1 mm 5 m/S 763 mmHg 93%
    22:00 +23°C° 0.1 mm 5 m/S 763 mmHg 93%
    23:00 +23°C° 0.2 mm 5 m/S 763 mmHg 93%

    übermorgen, 23 Mai, Donnerstag

    Zeit Temperatur Niederschläge Wind Luftdruck Luftfeuchtigkeit
    00:00 +23°C° 0.2 mm 5 m/S 763 mmHg 94%
    01:00 +23°C° 0.2 mm 5 m/S 763 mmHg 94%
    02:00 +23°C° 0.3 mm 5 m/S 762 mmHg 95%
    03:00 +23°C° 0.3 mm 5 m/S 762 mmHg 95%
    04:00 +22°C° 0.3 mm 5 m/S 762 mmHg 96%
    05:00 +22°C° 0.3 mm 5 m/S 762 mmHg 96%
    06:00 +22°C° 0.3 mm 5 m/S 762 mmHg 96%
    07:00 +22°C° 0.3 mm 5 m/S 762 mmHg 96%
    08:00 +23°C° 0.1 mm 5 m/S 763 mmHg 91%
    09:00 +24°C° 0.1 mm 6 m/S 763 mmHg 86%
    10:00 +26°C° 0.1 mm 6 m/S 764 mmHg 82%
    11:00 +27°C° 0 mm 6 m/S 763 mmHg 78%
    12:00 +27°C° 0 mm 6 m/S 763 mmHg 74%
    13:00 +28°C° 0 mm 6 m/S 762 mmHg 70%
    14:00 +28°C° 0 mm 6 m/S 762 mmHg 72%
    15:00 +27°C° 0 mm 6 m/S 761 mmHg 73%
    16:00 +27°C° 0 mm 6 m/S 761 mmHg 75%
    17:00 +26°C° 0 mm 6 m/S 761 mmHg 80%
    18:00 +25°C° 0 mm 5 m/S 762 mmHg 85%
    19:00 +23°C° 0 mm 5 m/S 762 mmHg 89%
    20:00 +23°C° 0 mm 5 m/S 762 mmHg 90%
    21:00 +22°C° 0 mm 5 m/S 763 mmHg 90%
    22:00 +22°C° 0 mm 5 m/S 763 mmHg 90%
    23:00 +22°C° 0 mm 5 m/S 763 mmHg 90%

    24 Mai, Freitag

    Zeit Temperatur Niederschläge Wind Luftdruck Luftfeuchtigkeit
    00:00 +22°C° 0 mm 5 m/S 762 mmHg 90%
    01:00 +22°C° 0 mm 5 m/S 762 mmHg 90%
    02:00 +22°C° 0 mm 5 m/S 762 mmHg 91%
    03:00 +22°C° 0 mm 5 m/S 761 mmHg 91%
    04:00 +22°C° 0 mm 5 m/S 761 mmHg 91%
    05:00 +22°C° 0 mm 5 m/S 761 mmHg 91%
    06:00 +22°C° 0 mm 5 m/S 762 mmHg 90%
    07:00 +22°C° 0 mm 5 m/S 762 mmHg 90%
    08:00 +23°C° 0.1 mm 5 m/S 762 mmHg 85%
    09:00 +25°C° 0.1 mm 5 m/S 763 mmHg 81%
    10:00 +27°C° 0.1 mm 6 m/S 763 mmHg 76%
    11:00 +27°C° 0.1 mm 6 m/S 762 mmHg 73%
    12:00 +28°C° 0.1 mm 6 m/S 762 mmHg 70%
    13:00 +28°C° 0.1 mm 6 m/S 761 mmHg 68%
    14:00 +28°C° 0 mm 5 m/S 761 mmHg 70%
    15:00 +27°C° 0 mm 5 m/S 760 mmHg 72%
    16:00 +27°C° 0 mm 5 m/S 760 mmHg 74%
    17:00 +26°C° 0 mm 5 m/S 760 mmHg 80%
    18:00 +25°C° 0 mm 5 m/S 761 mmHg 85%
    19:00 +23°C° 0 mm 4 m/S 761 mmHg 91%
    20:00 +22°C° 0 mm 4 m/S 762 mmHg 92%
    21:00 +22°C° 0 mm 4 m/S 762 mmHg 93%
    22:00 +22°C° 0 mm 4 m/S 762 mmHg 93%
    23:00 +22°C° 0 mm 4 m/S 762 mmHg 94%

    25 Mai, Samstag

    Zeit Temperatur Niederschläge Wind Luftdruck Luftfeuchtigkeit
    00:00 +22°C° 0 mm 4 m/S 761 mmHg 94%
    01:00 +22°C° 0 mm 4 m/S 761 mmHg 94%
    02:00 +22°C° 0 mm 4 m/S 761 mmHg 94%
    03:00 +22°C° 0 mm 4 m/S 760 mmHg 94%
    04:00 +22°C° 0 mm 4 m/S 760 mmHg 94%
    05:00 +22°C° 0 mm 4 m/S 760 mmHg 94%
    06:00 +22°C° 0 mm 4 m/S 761 mmHg 94%
    07:00 +22°C° 0 mm 4 m/S 761 mmHg 94%
    08:00 +23°C° 0.1 mm 4 m/S 761 mmHg 88%
    09:00 +26°C° 0.1 mm 4 m/S 761 mmHg 82%
    10:00 +27°C° 0.1 mm 4 m/S 762 mmHg 76%
    11:00 +28°C° 0.1 mm 4 m/S 761 mmHg 74%
    12:00 +29°C° 0.1 mm 4 m/S 761 mmHg 71%
    13:00 +29°C° 0.1 mm 4 m/S 760 mmHg 69%
    14:00 +29°C° 0.1 mm 4 m/S 760 mmHg 72%
    15:00 +28°C° 0.1 mm 4 m/S 759 mmHg 74%
    16:00 +27°C° 0.1 mm 4 m/S 759 mmHg 77%
    17:00 +26°C° 0 mm 4 m/S 760 mmHg 83%
    18:00 +25°C° 0 mm 4 m/S 760 mmHg 88%
    19:00 +24°C° 0 mm 3 m/S 761 mmHg 94%
    20:00 +24°C° 0 mm 3 m/S 761 mmHg 95%
    21:00 +22°C° 0 mm 3 m/S 761 mmHg 95%
    22:00 +22°C° 0 mm 3 m/S 761 mmHg 95%
    23:00 +22°C° 0 mm 3 m/S 761 mmHg 95%

    26 Mai, Sonntag

    Zeit Temperatur Niederschläge Wind Luftdruck Luftfeuchtigkeit
    00:00 +22°C° 0 mm 3 m/S 761 mmHg 95%
    01:00 +22°C° 0 mm 3 m/S 760 mmHg 95%
    02:00 +22°C° 0 mm 3 m/S 760 mmHg 95%
    03:00 +22°C° 0 mm 3 m/S 760 mmHg 95%
    04:00 +22°C° 0 mm 3 m/S 760 mmHg 95%
    05:00 +22°C° 0 mm 3 m/S 760 mmHg 95%
    06:00 +22°C° 0 mm 3 m/S 761 mmHg 95%
    07:00 +22°C° 0 mm 3 m/S 761 mmHg 95%
    08:00 +24°C° 0 mm 3 m/S 761 mmHg 88%
    09:00 +26°C° 0 mm 3 m/S 762 mmHg 80%
    10:00 +28°C° 0 mm 4 m/S 762 mmHg 72%
    11:00 +29°C° 0 mm 4 m/S 761 mmHg 69%
    12:00 +29°C° 0 mm 4 m/S 760 mmHg 65%
    13:00 +30°C° 0 mm 4 m/S 760 mmHg 62%
    14:00 +30°C° 0 mm 4 m/S 759 mmHg 64%
    15:00 +29°C° 0 mm 4 m/S 759 mmHg 67%
    16:00 +29°C° 0 mm 4 m/S 759 mmHg 70%
    17:00 +27°C° 0 mm 4 m/S 760 mmHg 78%
    18:00 +26°C° 0 mm 3 m/S 760 mmHg 86%
    19:00 +24°C° 0 mm 3 m/S 761 mmHg 94%
    20:00 +24°C° 0 mm 3 m/S 761 mmHg 95%
    21:00 +24°C° 0 mm 3 m/S 761 mmHg 95%
    22:00 +22°C° 0 mm 3 m/S 762 mmHg 96%
    23:00 +22°C° 0 mm 3 m/S 761 mmHg 96%
    Mehr zeigen